Location: Unspecified
(47.5840°N, 122.3000°W)
Time: 17:59:31
(UTC+00:00)

IRIDIUM 114 - Pass Details

Date: 14 March 2026
Orbit: 776 x 779 km, 86.4° (Epoch: 14 April)

Event Time Altitude Azimuth Distance (km) Brightness Sun altitude
Exits shadow 06:31:45 22° 323° (NW) 1,680 6.6 -39.4°
Drops below altitude 10° 06:34:04 10° 344° (NNW) 2,342 7.4 -39.6°
Sets 06:36:44 0° 356° (N) 3,275 8.3 -39.8°
